Wetbulb
61.77 61.26 61.27 60.94 59.99 59.94 60.34 59.43 57.19 54.09 54.97 57.26 57.29 58.12 57.48 57.64 56.05 56.08 55.67 53.66 50.80 49.86 50.26 51.73 53.84 55.29 55.69 56.18 56.79 57.45 58.00 58.34 58.67 58.54 57.79 58.69 58.82 58.91
61.49 61.59 61.34 61.45 61.06 60.58 60.28 60.13 59.38 57.57 54.75 58.19 58.47 59.18 59.17 58.57 56.88 56.59 55.92 53.64 50.35 49.35 48.71 49.27 51.12 53.11 53.85 54.29 54.34 54.98 55.82 56.49 57.09 57.48 57.72 57.96 58.41 58.33
52.92 60.83 60.84 61.53 60.84 60.92 60.87 60.44 59.78 59.56 57.15 58.98 59.65 60.14 59.48 59.32 59.32 56.30 56.32 55.29 55.12 49.13 48.32 48.30 48.25 49.37 50.72 51.41 51.90 52.70 53.23 53.99 54.86 55.71 56.61 57.25 57.80 58.12
48.75 51.81 55.85 61.14 60.66 61.04 60.78 60.24 60.06 60.27 59.13 57.65 59.54 58.71 59.42 60.12 59.90 57.57 56.64 56.30 55.25 50.88 48.43 47.73 47.47 47.29 48.11 48.72 49.28 49.57 50.14 50.80 51.30 52.26 53.53 54.72 55.94 56.74
46.81 48.77 51.61 55.63 60.32 60.20 60.42 60.14 60.26 60.08 59.77 58.51 57.88 59.35 60.44 60.16 58.99 58.84 57.59 57.62 56.13 52.95 47.92 47.09 46.93 46.90 47.13 47.63 48.24 48.42 48.51 48.56 48.21 48.82 49.10 49.89 51.33 52.88
48.52 49.85 51.83 48.97 47.80 58.92 59.98 59.88 59.84 59.46 59.09 58.37 58.23 58.64 58.70 58.79 59.78 59.01 57.87 57.85 56.80 56.93 51.75 48.73 47.45 46.88 46.52 46.33 46.63 47.38 47.76 47.63 47.33 47.49 46.81 45.76 46.43 48.08
46.70 45.75 46.92 43.41 42.62 42.95 50.64 58.51 59.28 58.54 58.19 57.59 57.07 56.83 57.09 56.89 57.53 57.61 58.50 59.14 59.20 57.88 55.04 52.78 50.05 48.96 48.48 46.22 48.37 47.27 46.65 46.63 46.97 47.24 47.22 45.93 44.59 45.67
40.56 41.88 44.40 42.05 40.86 40.00 40.50 42.40 42.14 57.69 57.27 56.91 56.47 56.02 56.45 57.27 57.83 57.47 57.43 56.29 55.72 59.36 57.57 56.85 53.36 51.35 51.44 49.81 47.41 45.97 44.95 45.59 45.93 46.45 46.40 46.13 45.42 44.54
38.59 38.70 40.35 39.88 38.70 39.40 41.05 42.34 45.23 45.04 44.14 54.87 56.49 56.19 55.93 56.67 55.83 55.83 57.11 57.01 57.00 57.88 58.96 56.92 53.76 54.40 55.77 53.54 46.35 44.78 44.57 44.07 44.51 44.56 44.70 44.45 44.25 43.48
37.57 36.80 37.70 37.05 36.56 37.58 43.17 45.94 48.24 51.26 48.00 49.69 53.64 57.90 58.16 58.22 58.05 57.97 57.54 57.62 58.47 57.53 59.35 55.83 55.97 56.31 58.21 57.44 47.72 45.70 44.42 43.83 43.75 43.58 43.40 43.26 42.63 42.70
36.43 35.90 35.29 35.41 35.18 36.40 38.78 39.96 41.69 43.62 42.46 42.10 42.91 42.33 44.68 43.23 46.08 54.64 56.63 56.02 54.68 56.03 57.63 56.65 56.13 54.82 56.71 57.48 57.39 46.27 44.48 43.91 43.49 43.10 43.17 42.56 42.40 41.46
34.09 34.20 33.49 33.46 33.45 34.11 34.73 35.48 35.58 37.58 41.20 43.76 47.72 48.62 49.31 49.85 43.05 50.57 54.70 53.33 54.08 51.68 56.37 55.42 55.67 54.73 50.71 54.37 57.77 56.37 50.77 42.86 42.51 43.20 43.11 42.59 41.75 43.73
30.81 30.92 31.59 32.80 32.19 32.88 32.79 32.57 32.86 36.31 37.74 40.12 40.71 40.97 41.89 42.46 43.77 45.83 48.40 49.24 53.09 54.56 54.99 56.39 53.12 54.43 54.18 52.22 52.98 55.25 55.45 53.59 49.34 48.29 42.30 42.21 41.16 44.30
28.09 29.00 30.35 31.08 31.14 30.62 30.48 31.28 31.58 32.80 34.32 34.30 34.35 33.95 35.03 36.75 39.12 41.01 43.19 45.76 46.58 48.06 56.23 55.98 54.35 53.78 52.04 51.38 52.17 54.36 56.05 57.34 55.75 52.91 52.14 45.56 40.39 40.67
28.33 28.58 28.88 29.30 29.11 27.78 28.74 29.28 28.50 28.74 29.55 29.31 29.66 30.64 32.18 34.76 36.24 37.73 40.50 41.16 43.72 48.29 45.54 44.52 44.80 49.74 55.46 53.78 52.98 53.44 50.79 52.33 56.93 55.77 51.11 47.58 45.36 42.78
26.49 26.72 25.69 26.05 25.27 25.94 25.72 25.69 25.73 25.50 25.65 25.41 26.29 28.26 30.23 30.72 30.90 33.90 34.29 36.55 38.78 38.16 40.58 40.62 41.10 41.52 42.19 47.83 53.91 52.91 52.22 50.51 51.43 54.76 55.23 50.24 47.69 46.30
24.74 24.69 23.79 22.86 21.97 21.79 23.41 23.94 23.98 22.87 21.46 22.03 22.28 23.26 24.47 25.26 26.68 30.47 31.32 32.38 32.47 32.73 34.11 36.98 38.54 39.61 41.86 43.59 46.01 52.91 53.82 52.45 54.65 52.41 50.70 49.37 47.17 47.63
22.82 21.52 21.39 21.98 21.07 20.44 19.98 21.78 22.14 21.23 20.83 20.42 19.88 20.14 20.64 21.46 22.52 25.64 27.31 27.83 28.24 29.42 31.54 33.70 34.72 34.44 35.58 39.13 42.59 43.01 47.76 47.26 47.37 51.08 51.42 49.98 50.15 45.83
20.34 20.51 20.31 20.39 21.03 20.51 19.86 19.58 20.51 21.33 21.31 19.66 18.91 18.70 19.07 19.03 20.02 20.64 21.85 23.11 25.00 26.79 29.20 31.10 32.16 31.29 29.32 29.01 34.70 36.32 35.85 37.48 41.66 43.40 47.80 48.81 50.77 53.30
20.49 19.89 19.64 19.99 19.76 20.66 20.13 19.40 19.83 21.02 19.90 19.19 18.17 17.85 17.36 17.41 17.26 17.30 17.95 18.22 19.73 23.75 25.91 27.87 28.52 27.32 25.86 28.35 30.35 34.10 35.77 37.87 38.64 39.12 40.39 43.57 45.22 37.61
20.35 19.70 20.06 19.84 19.25 18.90 20.33 21.04 20.57 20.52 19.52 18.80 17.87 17.43 16.61 16.14 16.53 16.76 16.65 16.15 17.14 20.05 21.91 23.28 25.94 27.39 29.54 31.78 30.48 31.10 34.22 35.41 36.11 37.16 37.88 38.39 40.81 38.26
19.69 19.45 19.85 19.70 17.66 19.18 19.55 20.75 19.91 19.66 19.15 18.15 17.00 16.71 15.85 15.64 15.48 15.56 15.66 15.40 16.45 18.03 20.23 21.94 23.33 24.01 24.68 25.15 25.24 27.25 30.03 33.31 35.27 34.81 34.83 35.75 38.55 37.04
19.76 19.07 20.30 20.68 20.97 20.36 19.56 19.16 18.55 18.49 18.54 17.35 16.48 16.43 7.61 14.69 15.33 15.26 15.29 15.49 16.12 16.81 18.67 18.01 19.35 20.12 20.53 22.28 22.79 24.47 27.82 27.68 31.02 32.13 34.64 34.50 32.61 32.76
MSLP
1016.03 1016.27 1016.51 1016.94 1017.30 1017.69 1018.02 1018.36 1018.85 1019.07 1019.23 1019.01 1019.44 1019.28 1019.57 1019.96 1020.16 1020.69 1021.03 1021.27 1021.86 1022.21 1022.62 1023.07 1023.45 1023.81 1024.17 1024.54 1024.96 1025.37 1025.73 1026.14 1026.45 1026.74 1026.98 1027.19 1027.45 1027.66
1015.95 1016.05 1016.35 1016.56 1016.97 1017.24 1017.66 1018.01 1018.25 1018.36 1018.49 1018.46 1018.53 1018.52 1018.66 1018.96 1019.21 1019.68 1019.88 1020.33 1020.84 1021.18 1021.68 1022.18 1022.61 1023.07 1023.45 1023.83 1024.31 1024.70 1025.07 1025.48 1025.81 1026.09 1026.43 1026.65 1026.85 1027.02
1016.79 1015.96 1015.98 1016.37 1016.63 1016.84 1017.11 1017.54 1017.78 1017.95 1017.95 1017.97 1017.99 1018.05 1018.39 1018.46 1018.40 1018.92 1019.29 1019.73 1019.97 1020.37 1020.76 1021.26 1021.73 1022.15 1022.57 1023.00 1023.42 1023.84 1024.30 1024.70 1025.04 1025.51 1025.80 1026.00 1026.18 1026.34
1017.37 1016.87 1016.49 1016.09 1016.13 1016.26 1016.62 1016.81 1017.22 1017.37 1017.60 1017.65 1017.67 1017.83 1017.90 1017.83 1017.88 1018.32 1018.51 1018.77 1019.09 1019.35 1019.88 1020.39 1020.84 1021.23 1021.65 1022.01 1022.38 1022.82 1023.33 1023.76 1024.23 1024.64 1024.90 1025.20 1025.45 1025.69
1017.95 1017.51 1017.13 1016.69 1016.01 1015.84 1016.19 1016.33 1016.67 1016.85 1017.02 1017.25 1017.16 1017.32 1017.34 1017.37 1017.67 1017.83 1017.90 1018.03 1018.25 1018.50 1018.96 1019.54 1020.00 1020.43 1020.83 1021.07 1021.40 1021.73 1022.19 1022.64 1023.25 1023.61 1023.94 1024.29 1024.63 1024.91
1018.36 1017.81 1017.50 1017.38 1017.11 1015.86 1015.83 1015.90 1016.22 1016.57 1016.74 1016.87 1016.99 1016.95 1016.96 1017.09 1017.23 1017.31 1017.46 1017.55 1017.78 1017.91 1018.40 1018.77 1019.27 1019.54 1019.93 1020.44 1020.76 1021.09 1021.31 1021.64 1022.07 1022.47 1022.87 1023.25 1023.59 1023.95
1018.50 1018.19 1018.29 1018.26 1017.99 1017.66 1016.75 1016.04 1015.94 1016.09 1016.47 1016.29 1016.67 1016.67 1016.73 1016.97 1017.01 1016.98 1016.94 1017.03 1017.34 1017.46 1017.98 1018.25 1018.74 1019.15 1019.23 1019.59 1019.47 1019.95 1020.17 1020.43 1020.80 1021.18 1021.60 1021.97 1022.43 1022.83
1019.33 1019.23 1018.76 1018.35 1018.14 1017.78 1017.30 1016.95 1016.62 1016.10 1016.11 1016.04 1016.27 1016.31 1016.35 1016.68 1016.62 1016.50 1016.80 1016.89 1016.95 1016.81 1017.40 1017.60 1018.01 1018.40 1017.91 1018.26 1018.10 1018.76 1019.02 1019.29 1019.50 1019.82 1020.21 1020.59 1021.02 1021.40
1020.28 1020.17 1019.67 1019.51 1018.82 1018.27 1017.54 1016.76 1016.46 1016.23 1016.09 1015.94 1015.75 1015.84 1016.03 1016.07 1016.22 1016.39 1016.55 1016.52 1016.23 1016.14 1016.50 1016.80 1017.12 1017.16 1016.75 1016.99 1017.27 1017.51 1017.88 1018.23 1018.50 1018.82 1019.17 1019.41 1019.73 1020.05
1021.42 1021.18 1020.73 1020.17 1019.66 1019.03 1018.04 1017.17 1016.95 1016.63 1016.50 1016.40 1016.00 1015.54 1015.44 1015.62 1015.75 1015.64 1015.93 1016.07 1016.00 1015.91 1015.91 1016.07 1016.18 1016.22 1015.89 1016.10 1016.33 1016.50 1016.83 1017.18 1017.32 1017.68 1018.04 1018.27 1018.53 1018.98
1022.20 1021.87 1021.46 1020.71 1020.65 1019.56 1018.81 1018.31 1017.85 1017.69 1016.96 1016.75 1016.36 1016.00 1015.51 1015.56 1015.82 1015.92 1015.80 1016.00 1015.63 1015.36 1015.38 1015.45 1015.57 1015.66 1015.56 1015.46 1015.35 1015.57 1015.84 1016.13 1016.44 1016.69 1016.94 1017.30 1017.49 1018.07
1022.82 1022.60 1022.31 1022.02 1021.78 1021.09 1019.92 1019.57 1018.99 1018.77 1017.43 1016.90 1016.48 1016.12 1015.60 1015.27 1015.61 1015.83 1015.83 1015.83 1015.48 1015.08 1014.75 1015.11 1014.89 1015.20 1015.22 1014.52 1014.51 1014.64 1015.21 1015.41 1015.59 1015.66 1015.63 1016.03 1016.74 1017.58
1023.74 1023.56 1023.35 1023.06 1022.54 1021.83 1021.15 1020.83 1020.60 1020.06 1018.97 1018.38 1018.07 1017.94 1017.31 1017.14 1016.95 1016.72 1016.44 1016.34 1015.74 1014.98 1014.38 1014.65 1014.52 1014.46 1014.57 1014.20 1013.96 1013.99 1014.29 1014.33 1014.65 1014.64 1014.93 1015.08 1015.64 1016.21
1024.65 1024.49 1024.12 1023.59 1023.11 1022.66 1021.99 1022.01 1021.34 1020.77 1019.77 1019.87 1019.90 1019.52 1019.02 1018.58 1018.26 1017.91 1017.13 1016.60 1016.48 1015.84 1014.69 1014.34 1014.26 1014.13 1014.10 1014.02 1013.81 1013.36 1013.32 1013.18 1013.43 1013.68 1013.69 1013.74 1014.68 1015.19
1025.46 1025.22 1024.77 1024.27 1023.86 1023.57 1023.17 1022.54 1022.16 1021.97 1021.70 1021.64 1021.44 1021.78 1020.74 1020.59 1019.75 1018.79 1017.82 1017.00 1016.43 1015.49 1015.64 1015.90 1015.51 1014.78 1013.67 1013.44 1013.23 1013.08 1013.26 1012.83 1012.65 1012.89 1012.81 1013.22 1013.54 1014.28
1025.98 1025.73 1025.54 1025.18 1024.94 1024.69 1024.35 1024.10 1023.96 1023.89 1023.55 1023.27 1023.10 1022.83 1021.39 1021.44 1020.65 1020.43 1019.13 1017.97 1017.20 1016.45 1016.40 1016.50 1016.29 1015.83 1014.89 1013.88 1013.11 1012.74 1012.65 1012.69 1012.20 1012.13 1012.19 1012.35 1012.64 1012.96
1026.66 1026.34 1026.10 1025.90 1025.73 1025.59 1025.43 1025.32 1025.11 1024.94 1024.67 1024.56 1024.21 1023.76 1023.36 1022.67 1022.05 1021.77 1020.67 1019.78 1019.19 1018.49 1017.55 1016.88 1016.50 1015.76 1015.00 1014.53 1013.48 1012.80 1012.27 1012.11 1011.77 1011.67 1011.84 1011.97 1011.95 1011.95
1027.09 1027.02 1026.94 1026.82 1026.69 1026.67 1026.48 1026.23 1025.98 1025.80 1025.78 1025.60 1025.33 1024.97 1024.49 1024.07 1023.31 1022.83 1022.02 1021.13 1020.59 1020.05 1019.40 1018.11 1017.34 1016.07 1015.28 1014.38 1014.31 1013.76 1013.19 1013.13 1012.86 1012.05 1011.22 1011.28 1011.30 1011.11
1027.73 1027.78 1027.72 1027.62 1027.49 1027.32 1027.18 1026.95 1026.72 1026.66 1026.59 1026.36 1026.18 1025.95 1025.57 1025.01 1024.47 1023.87 1023.45 1022.83 1021.92 1021.29 1020.64 1019.60 1018.87 1018.25 1017.49 1017.04 1015.88 1015.57 1015.35 1014.61 1013.49 1012.87 1012.04 1011.43 1010.66 1009.96
1028.15 1028.18 1028.18 1028.13 1028.05 1027.89 1027.68 1027.47 1027.18 1026.98 1026.86 1026.81 1026.68 1026.52 1026.30 1025.90 1025.40 1024.91 1024.39 1023.74 1022.99 1021.95 1021.20 1020.39 1019.97 1019.87 1019.43 1018.25 1017.09 1016.11 1015.76 1015.12 1014.49 1013.79 1013.06 1012.13 1011.08 1010.36
1028.46 1028.45 1028.41 1028.36 1028.26 1028.08 1027.92 1027.79 1027.67 1027.51 1027.48 1027.39 1027.29 1027.14 1027.03 1026.69 1026.09 1025.54 1024.91 1024.36 1023.75 1022.98 1021.92 1021.12 1020.57 1020.47 1019.53 1018.26 1017.31 1016.27 1015.66 1015.48 1015.05 1014.63 1013.83 1012.92 1011.64 1010.57
1028.27 1028.28 1028.25 1028.18 1028.11 1028.01 1027.87 1027.74 1027.62 1027.43 1027.35 1027.34 1027.33 1027.22 1027.11 1026.80 1026.31 1025.87 1025.32 1024.68 1024.02 1023.38 1022.48 1021.69 1021.04 1020.48 1019.79 1019.04 1018.03 1017.06 1016.04 1014.88 1014.64 1014.25 1013.53 1013.13 1012.54 1011.58
1027.90 1027.84 1027.83 1027.81 1027.74 1027.68 1027.57 1027.44 1027.33 1027.19 1027.12 1027.12 1027.09 1026.98 1026.89 1026.71 1026.42 1026.09 1025.60 1025.05 1024.45 1023.73 1022.94 1022.21 1021.57 1021.00 1020.31 1019.45 1018.58 1017.53 1016.44 1015.71 1014.40 1013.62 1012.88 1012.14 1011.93 1011.63
Wind_Speed
7 6 5 4 4 4 4 5 7 4 8 5 6 10 9 9 11 12 14 15 20 19 19 19 19 18 17 17 16 16 17 16 15 15 16 15 15 15
3 7 7 5 7 6 6 6 5 7 5 6 6 4 9 9 10 13 14 16 19 21 20 20 20 20 19 18 16 17 17 17 17 17 15 15 16 15
8 3 7 7 6 7 7 7 7 7 8 5 4 5 5 9 8 10 9 11 10 18 20 20 19 19 19 18 18 18 17 17 18 17 17 17 18 17
8 7 8 6 9 8 7 9 8 7 6 10 5 4 8 7 8 8 9 9 10 13 19 20 20 20 20 20 20 19 18 18 17 17 17 18 18 18
7 8 8 9 7 6 8 7 7 6 7 6 6 4 6 3 3 4 7 7 7 10 16 18 19 18 20 21 22 21 21 20 18 19 18 17 18 17
6 5 6 8 10 6 8 8 6 6 6 6 6 7 4 2 2 6 4 3 5 6 7 9 14 18 19 18 19 20 21 20 20 20 19 19 19 18
9 11 8 12 12 10 5 3 6 6 5 6 5 2 2 2 5 2 2 3 5 4 4 4 4 6 8 15 17 23 22 22 21 22 22 21 19 20
10 10 9 15 15 14 11 9 6 6 6 5 3 4 5 3 3 3 5 4 3 4 5 4 6 6 6 8 15 19 22 24 24 24 23 23 22 23
13 11 10 10 14 13 12 8 8 10 6 3 6 6 5 6 5 3 5 5 6 3 7 7 5 8 7 9 16 19 20 21 23 23 23 23 22 22
12 12 11 13 16 15 9 8 8 7 11 7 7 7 6 4 6 6 7 8 7 3 4 7 4 7 7 7 13 18 19 20 21 22 23 23 22 21
9 13 13 15 21 22 11 11 9 9 9 11 11 9 9 5 4 2 6 6 5 4 5 3 3 4 5 7 7 16 18 19 20 21 22 22 21 17
9 11 20 17 21 21 13 11 11 11 11 13 10 9 9 4 2 2 4 6 4 2 4 5 5 4 3 5 9 6 7 15 19 21 22 21 17 8
7 8 9 18 22 22 20 13 12 9 10 10 9 10 11 10 9 8 6 6 5 4 2 3 3 3 4 3 2 4 6 7 7 9 18 18 16 16
7 7 9 18 20 24 17 20 19 11 10 10 9 10 11 11 11 10 9 7 6 6 8 4 3 4 3 4 6 3 7 8 7 8 8 6 15 19
6 11 16 18 18 15 24 23 18 11 10 10 9 9 9 10 10 11 9 10 9 5 9 10 9 10 6 6 5 5 4 4 7 8 4 6 6 6
7 6 8 11 12 10 11 13 10 10 10 9 9 8 9 9 10 10 8 11 6 9 9 11 10 9 5 6 5 6 5 5 3 6 7 3 4 7
5 5 7 8 9 9 9 10 9 10 10 9 9 9 9 9 10 9 10 8 8 9 9 11 11 10 7 9 5 6 6 4 7 6 5 5 5 8
5 7 7 7 8 8 8 8 8 10 9 8 8 9 9 9 10 9 8 9 9 9 9 9 11 11 7 5 9 7 6 7 8 8 5 6 8 6
5 5 5 6 6 6 6 6 6 6 7 7 7 8 8 8 10 9 9 8 8 7 8 8 8 8 7 5 5 8 11 9 9 7 7 5 9 8
3 3 4 3 3 3 4 4 5 5 6 6 6 7 7 8 8 8 8 9 9 9 8 8 8 8 8 7 7 9 10 9 9 8 9 8 6 7
0 1 0 1 2 2 2 3 3 3 4 5 5 5 6 6 7 7 8 9 9 8 9 9 9 14 9 9 6 7 7 8 9 9 10 9 7 4
2 2 2 2 1 1 2 2 2 3 3 3 4 3 4 6 7 8 8 9 8 8 8 8 9 9 8 7 9 10 11 9 8 12 13 11 5 5
3 3 2 2 2 2 2 2 2 2 2 2 3 4 1 6 6 6 7 8 8 9 8 9 9 7 8 8 10 9 12 13 11 10 8 7 11 16
Wind_Direction
204 194 214 200 186 189 194 197 194 186 218 212 215 202 208 208 210 203 210 210 214 216 213 212 213 211 212 212 211 214 218 226 229 234 241 236 242 247
257 194 202 202 197 195 197 199 203 220 233 195 211 196 197 213 205 206 213 212 209 212 213 212 211 212 212 213 210 214 216 217 223 226 230 234 238 238
337 264 210 205 195 199 194 204 213 212 236 248 209 201 210 220 216 206 210 210 217 213 213 213 210 209 210 210 209 213 214 216 220 224 225 229 233 237
333 335 332 207 212 198 200 208 212 210 224 245 226 211 211 214 221 193 206 206 214 203 210 213 214 212 210 210 210 211 211 215 214 217 222 225 230 233
328 329 326 330 218 208 207 213 215 213 216 234 251 210 215 180 192 207 195 206 203 205 204 211 216 218 219 216 215 212 213 216 211 218 222 218 223 225
318 319 335 14 351 281 213 209 208 211 225 225 251 250 206 181 196 219 193 186 208 203 200 199 205 214 216 215 219 221 219 217 213 219 222 220 220 223
16 20 43 26 11 357 345 273 209 216 226 220 220 218 233 221 219 210 215 196 214 183 188 204 193 211 222 228 228 225 220 218 218 220 224 225 219 222
23 11 12 19 360 350 343 324 314 237 206 202 210 214 215 216 223 185 218 200 233 196 195 223 169 217 217 211 215 224 215 219 222 224 224 225 220 218
29 14 15 15 6 348 325 325 321 303 263 260 224 216 226 204 193 212 226 226 227 213 203 232 170 228 219 227 213 211 217 217 223 226 228 229 225 219
40 24 23 18 10 350 339 4 357 342 21 349 268 256 220 220 218 210 212 235 250 232 198 228 167 229 234 226 212 213 215 222 223 224 226 228 227 223
36 36 22 27 10 7 16 18 13 360 345 337 322 314 283 279 255 311 242 239 248 237 193 217 192 219 213 233 233 220 220 223 225 225 228 230 227 217
28 32 25 32 22 25 32 23 15 349 2 356 358 354 353 333 306 218 251 255 260 267 207 209 219 174 264 221 227 214 214 227 228 228 226 227 219 201
28 23 25 29 34 34 38 29 15 350 14 19 15 4 16 11 6 0 1 348 295 259 235 201 233 204 219 238 222 208 203 232 219 236 237 232 198 195
28 21 25 32 35 35 36 31 28 22 31 26 21 15 5 3 356 346 343 337 319 307 308 243 257 203 218 245 250 243 234 240 215 227 224 202 196 204
31 35 31 31 33 31 32 29 31 26 29 29 24 5 8 350 350 350 345 350 320 350 16 21 9 339 259 247 264 253 239 238 221 228 187 194 183 178
11 25 26 33 36 32 31 32 31 26 26 26 14 358 15 0 6 355 352 357 337 356 4 12 355 344 316 298 282 253 225 236 221 230 233 212 186 200
17 30 34 30 31 28 28 31 30 28 27 19 16 12 6 7 5 355 360 354 12 352 344 348 349 331 283 264 283 254 253 245 243 232 185 228 222 214
33 37 35 33 34 27 26 21 26 27 23 18 19 14 10 4 359 356 5 3 357 353 338 349 345 354 0 334 47 1 355 358 353 311 242 225 246 209
52 44 41 32 26 24 23 20 25 27 16 21 17 13 7 5 360 3 358 353 352 342 339 347 352 1 356 336 302 30 355 328 332 320 320 269 265 257
47 52 45 33 22 17 11 15 7 16 17 17 14 12 7 359 357 359 355 349 342 334 336 348 358 0 336 317 309 308 314 329 335 326 319 315 303 307
57 58 48 31 16 2 348 2 4 9 11 7 8 6 3 350 352 349 342 340 332 332 331 336 344 332 308 303 303 315 315 318 303 312 307 298 291 298
228 236 257 251 270 300 305 319 337 348 358 0 357 351 357 341 344 340 338 332 332 324 320 324 334 330 328 324 314 318 316 318 309 291 278 245 289 296
217 218 231 249 245 258 283 293 287 299 305 322 332 339 345 335 336 330 326 324 320 318 325 325 325 330 317 314 313 308 328 324 316 323 316 265 249 266